Regional Weather Roundup
Issued by NWS

Home | Current Version | Previous Version | Graphics & Text | Print | Product List | Glossary On
Versions: 1 2 3 4 5 6 7 8 9 10 11 12 13 14 15 16 17 18 19 20 21 22 23 24 25 26 27 28 29 30 31 32 33 34 35 36 37 38 39 40 41 42 43 44 45 46 47 48 49 50
563
ASUS43 KMKX 280511
RWRWI

WISCONSIN REGIONAL WEATHER ROUNDUP
NATIONAL WEATHER SERVICE MILWAUKEE/SULLIVAN WI
1200 AM CDT TUE MAR 28 2017

NOTE: "FAIR" INDICATES FEW OR NO CLOUDS BELOW 12,000 FEET WITH NO
SIGNIFICANT WEATHER AND/OR OBSTRUCTIONS TO VISIBILITY.

WIZ001-002-006>008-014>016-023>028-280600-
NORTHWEST WISCONSIN

CITY           SKY/WX    TMP DP  RH WIND       PRES   REMARKS
SUPERIOR ARPT  CLEAR     28  28 100 CALM      30.06R
ASHLAND        CLEAR     29  28  96 W3        30.05S FOG
HAYWARD        CLEAR     29  25  85 N3        30.04R
SIREN          CLEAR     33  30  86 CALM      30.04R
CUMBERLAND     CLEAR     37  30  75 CALM      30.03R
RICE LAKE      CLEAR     32  31  96 CALM      30.05R
CHETEK         CLEAR     31  31 100 CALM      30.04R
LADYSMITH      CLEAR     37  31  78 CALM      30.04R
EAU CLAIRE     PTCLDY    32  31  96 CALM      30.03R
MENOMONIE      CLOUDY    34  33  97 CALM      30.04R
NEW RICHMOND   PTCLDY    35  35 100 CALM      30.03R
OSCEOLA        CLOUDY    34  34 100 CALM      30.06R
$$

WIZ003>005-009-010-017-018-280600-
NORTH CENTRAL WISCONSIN

CITY           SKY/WX    TMP DP  RH WIND       PRES   REMARKS
MANITOWISH WTR CLEAR     28  28 100 CALM      30.02R
ARBOR VITAE    CLEAR     32  30  94 CALM      30.01R
WOODRUFF       CLEAR     32  30  94 CALM      30.01R
RHINELANDER    CLEAR     29  27  92 CALM      30.02R
EAGLE RIVER    PTCLDY    27  27 100 CALM      30.01S FOG
LAND O LAKES   CLEAR     28  28  99 CALM      30.03R
PHILLIPS       CLEAR     28  28  98 CALM      30.02R
TOMAHAWK       CLEAR     26  25  96 CALM      30.03R
MEDFORD        FOG       29  29  99 E3        30.01S VSB 1/4
MERRILL        PTCLDY    28  28 100 CALM      30.03R FOG
$$

WIZ029-030-035-036-043>047-280600-
CENTRAL WISCONSIN

CITY           SKY/WX    TMP DP  RH WIND       PRES   REMARKS
WAUSAU         MOCLDY    33  32  96 N6        30.01R WCI  28
MOSINEE        PTCLDY    36  36 100 N6        30.02R WCI  31
MARSHFIELD     CLEAR     35  33  92 N5        30.00R WCI  31
STEVENS POINT  CLOUDY    34  34 100 CALM      30.02R
WAUPACA        CLOUDY    42  40  96 CALM      30.02S FOG
WAUTOMA        CLOUDY    41  40  96 CALM      30.02S
WISC RAPIDS    CLOUDY    38  38 100 CALM      30.03R
CAMP DOUGLAS   CLOUDY    40  38  96 CALM      30.01S
$$

WIZ011>013-019>022-031-037>040-048>050-280600-
NORTHEAST WISCONSIN

CITY           SKY/WX    TMP DP  RH WIND       PRES   REMARKS
ANTIGO         PTCLDY    30  30 100 CALM      30.02S FOG
SHAWANO        CLOUDY    38  36  92 CALM      30.03S
OCONTO         PTCLDY    33  33  98 CALM      30.03R
STURGEON BAY   CLOUDY    36  35  96 NW5       30.04R WCI  32
GREEN BAY      CLOUDY    40  38  93 NW3       30.02R
MANITOWOC      CLOUDY    38  35  89 CALM      30.02S
APPLETON       CLOUDY    37  37 100 CALM      30.00R
CLINTONVILLE   CLOUDY    39  37  93 CALM      30.02S
OSHKOSH        CLOUDY    39  36  89 CALM      30.01S
$$

WIZ032>034-041-042-053>061-280600-
SOUTHWEST WISCONSIN

CITY           SKY/WX    TMP DP  RH WIND       PRES   REMARKS
LA CROSSE      CLOUDY    43  39  86 CALM      30.01S
SPARTA         CLOUDY    41  39  92 CALM      30.02S
VIROQUA        CLOUDY    42  42  99 CALM      29.99S
BOSCOBEL       CLOUDY    46  44  93 CALM      30.01R
PRAIRIE DU CHI CLOUDY    45  43  93 CALM      30.00F
PLATTEVILLE    CLOUDY    46  46 100 CALM      30.00R
$$

WIZ056-057-062-063-064-067-068-280600-
SOUTH CENTRAL WISCONSIN

CITY           SKY/WX    TMP DP  RH WIND       PRES   REMARKS
REEDSBURG      CLOUDY    43  43 100 CALM      29.99F FOG
BARABOO/DELLS  CLOUDY    42  40  96 NE6       30.00S FOG
LONE ROCK      CLOUDY    46  43  89 NE3       30.00S
MINERAL POINT  CLOUDY    45  45 100 CALM      29.99S FOG
MADISON        CLOUDY    43  42  97 NE5       30.00R
MIDDLETON      CLOUDY    45  45 100 NE6       30.00S
WATERTOWN      CLOUDY    40  40 100 CALM      30.00S
MONROE         CLOUDY    45  45 100 NE6       29.98S FOG
JANESVILLE     CLOUDY    45  43  93 E9        29.99R FOG
$$

WIZ051-052-058>065-066-070>072-280600-
SOUTHEAST WISCONSIN

CITY           SKY/WX    TMP DP  RH WIND       PRES   REMARKS
MILWAUKEE      CLOUDY    39  36  89 N6        30.00S WCI  35
WAUKESHA       CLOUDY    36  36 100 CALM      30.01R FOG
MILWAUKEE/TIMM CLOUDY    36  34  93 N3        30.01S FOG
RACINE         CLOUDY    38  35  89 N8        30.01S WCI  32
KENOSHA        CLOUDY    39  36  89 N3        30.00R
FOND DU LAC    CLOUDY    41  36  82 N5        30.01R
SHEBOYGAN      CLOUDY    37  34  89 NW3       30.01S
WEST BEND      CLOUDY    37  36  93 CALM      30.01R
JUNEAU         CLOUDY    40  39  97 CALM      30.02R FOG
$$

LSZ147-162-280600-
LAKE SUPERIOR

STATION/POSITION TIME  TEMP    WIND        PRES    WAVE
                       AIR SEA DIR/SP/G            HT/PER
                 (UTC) (F)     (DEG/KT/KT) (MB)    (FT/S)
DEVILS ISLAND    0500   37      CALM  /  1 1018.4R
PORT WING        0430   31     130/  2/  5 1017.6S
SAXON HARBOR     0430   31     190/  5/  6 1017.3S
$$

LMZ867-665-643>646-280600-
LAKE MICHIGAN

STATION/POSITION TIME  TEMP    WIND        PRES    WAVE
                       AIR SEA DIR/SP/G            HT/PER
                 (UTC) (F)     (DEG/KT/KT) (MB)    (FT/S)
CHAMBERS ISLAND  0440   33        CALM     1016.6R
NORTHPORT PIER   0440   36     310/  3/  6 1016.6S
SISTER BAY       0436   33        CALM       N/A
KEWAUNEE LAKESHO 0448   37     310/  2/  4 1016.0R
SHEBOYGAN LAKESH 0500   38     330/  5/  6 1016.7R
PORT WASHINGTON  0430   39     360/  3/  5 1016.9F
MILWAUKEE LAKESH 0450   38     340/  7/ 10   N/A
KENOSHA   LAKESH 0500   39      10/  6/  9 1015.9
$$

TC  - TEMPERATURE IN CELSIUS
VSB - VISIBILITY IN STATUTE MILES
WCI - WIND CHILL INDEX
HX  - HEAT INDEX





USA.gov is the U.S. government's official web portal to all federal, state and local government web resources and services.